Location: Drebach
(50.6670°N, 13.0330°E)
Time: 05:58:06
(UTC+01:00)

ISS - Pass Details

Date: 27 January 2021
Orbit: 417 x 422 km, 51.6° (Epoch: 08 March)

Event Time Altitude Azimuth Distance (km) Brightness Sun altitude
Rises 17:59:26 0° 261° (W) 2,369 2.2 -10.8°
Reaches altitude 10° 18:01:32 10° 263° (W) 1,506 0.6 -11.1°
Maximum altitude 18:04:55 81° 352° (N) 433 -3.8 -11.6°
Enters shadow 18:07:08 20° 77° (ENE) 1,038 -2.4 -11.9°
